Northeast Philadelphia, PA

2:25 PM EST on November 14, 2019 (GMT -0500)
Northeast Philadelphia

Weather History for KPNE - October, 2019

Change the Weather History Date:

Monday, October 21, 2019

  Actual Average Record
Temperature  
Mean Temperature 60 °F -  
Max Temperature 71 °F 61 °F 81 °F (2016)
Min Temperature 51 °F 42 °F 36 °F (1997)
Degree Days  
Heating Degree Days 4    
Growing Degree Days 10 (Base 50)    
Moisture  
Dew Point 48 °F    
Average Humidity 69    
Maximum Humidity 86    
Minimum Humidity 36    
Precipitation  
Precipitation 0.00 in - - ()
Sea Level Pressure  
Sea Level Pressure 30.06 in    
Wind  
Wind Speed 8 mph ()    
Max Wind Speed 13 mph    
Max Gust Speed -    
Visibility 9.9 miles    
Events Rain    
Averages and records for this station are not official NWS values.
T = Trace of Precipitation, MM = Missing Value Source: Averaged Metar Reports

Daily Weather History Graph

Daily Weather History Graph

Search for Another Location

Airport or City:

Astronomy

Oct. 21, 2019 Rise Set
Actual Time 7:16 AM EDT 6:12 PM EDT
Civil Twilight 6:49 AM EDT 6:39 PM EDT
Nautical Twilight 6:17 AM EDT 7:11 PM EDT
Astronomical Twilight 5:46 AM EDT 7:42 PM EDT
Moon No Moon Rise 2:32 PM EDT (10/21)
Length of Visible Light 11h 50m
Length of Day
10h 55m
Waning Gibbous, 48% of the Moon is Illuminated
Oct 21
Waning Gibbous
Oct 27
New
Nov 4
First Quarter
Nov 12
Full
Nov 19
Last Quarter

Hourly Weather History & Observations

Time (EDT) Temp. Dew Point Humidity Pressure Visibility Wind Dir Wind Speed Gust Speed Precip Events Conditions
12:40 AM 55.0 °F 50.0 °F 83% 29.96 in 8.0 mi NNE 11.5 mph - N/A   Overcast
12:54 AM 55.0 °F 50.0 °F 83% 29.97 in 9.0 mi North 9.2 mph - 0.00 in Rain Light Rain
1:06 AM 55.0 °F 50.0 °F 83% 29.97 in 10.0 mi NNE 12.7 mph - 0.00 in   Overcast
1:29 AM 55.0 °F 51.1 °F 86% 29.97 in 10.0 mi NNE 12.7 mph - 0.00 in   Overcast
1:54 AM 55.0 °F 50.0 °F 83% 29.98 in 10.0 mi NNE 11.5 mph - 0.00 in   Overcast
2:09 AM 55.0 °F 50.0 °F 83% 29.98 in 10.0 mi North 11.5 mph - N/A   Overcast
2:54 AM 55.0 °F 50.0 °F 83% 29.99 in 10.0 mi North 11.5 mph - N/A   Overcast
3:54 AM 55.0 °F 48.9 °F 80% 29.99 in 10.0 mi North 10.4 mph - N/A   Overcast
4:51 AM 53.6 °F 48.2 °F 82% 30.01 in 10.0 mi North 9.2 mph - N/A   Scattered Clouds
4:54 AM 53.1 °F 48.0 °F 83% 30.01 in 10.0 mi North 9.2 mph - N/A   Partly Cloudy
5:54 AM 51.1 °F 46.9 °F 86% 30.04 in 10.0 mi North 8.1 mph - N/A   Clear
6:54 AM 51.1 °F 46.0 °F 83% 30.06 in 10.0 mi NNW 11.5 mph - N/A   Clear
7:54 AM 53.1 °F 46.9 °F 80% 30.06 in 10.0 mi North 8.1 mph - N/A   Clear
8:54 AM 55.9 °F 46.9 °F 72% 30.08 in 10.0 mi NNE 11.5 mph - N/A   Clear
9:54 AM 60.1 °F 48.0 °F 64% 30.07 in 10.0 mi NNE 8.1 mph - N/A   Clear
10:54 AM 63.0 °F 46.9 °F 56% 30.09 in 10.0 mi NNE 9.2 mph - N/A   Clear
11:54 AM 66.0 °F 46.0 °F 48% 30.09 in 10.0 mi NE 10.4 mph - N/A   Clear
12:54 PM 68.0 °F 43.0 °F 40% 30.08 in 10.0 mi NE 11.5 mph - N/A   Clear
1:54 PM 69.1 °F 42.1 °F 38% 30.06 in 10.0 mi East 6.9 mph - N/A   Clear
3:54 PM 70.0 °F 42.1 °F 36% 30.07 in 10.0 mi East 6.9 mph - N/A   Clear
4:54 PM 69.1 °F 44.1 °F 40% 30.07 in 10.0 mi East 9.2 mph - N/A   Clear
5:54 PM 66.0 °F 46.0 °F 48% 30.08 in 10.0 mi East 6.9 mph - N/A   Clear
6:54 PM 62.1 °F 50.0 °F 65% 30.09 in 10.0 mi ESE 5.8 mph - N/A   Clear
7:54 PM 61.0 °F 50.0 °F 67% 30.12 in 10.0 mi SSE 3.5 mph - N/A   Clear
8:20 PM 61.0 °F 50.0 °F 67% 30.12 in 10.0 mi SSE 3.5 mph - N/A   Mostly Cloudy
8:54 PM 61.0 °F 51.1 °F 70% 30.12 in 10.0 mi ESE 4.6 mph - N/A   Overcast
9:54 PM 61.0 °F 51.1 °F 70% 30.13 in 10.0 mi SE 6.9 mph - N/A   Overcast
10:49 PM 60.8 °F 51.8 °F 72% 30.13 in 10.0 mi SE 4.6 mph - N/A   Overcast
10:54 PM 60.1 °F 51.1 °F 72% 30.13 in 10.0 mi ESE 5.8 mph - N/A   Overcast
11:37 PM 60.1 °F 52.0 °F 75% 30.13 in 10.0 mi Calm Calm - N/A   Overcast
11:54 PM 60.1 °F 52.0 °F 75% 30.12 in 10.0 mi Calm Calm - N/A   Overcast